This demonstration page uses our WeatherBlox Daily Observations layout. Learn more.

Left ArrowRight Arrow

39.01783, -85.05884

Hourly Observations for November 4, 2021

Temp ( °F °C ) Dew Point ( °F °C ) Humidity (%) Winds ( mph kmh ) Pressure ( in mb ) Visibility ( mi km ) Precip ( " mm )
12:52 am 00:52 Clear 35 1.7 26 -3.3 70 70 N N/A 30.34 1027 10 16 N/A
1:52 am 01:52 Clear 34 1.1 27 -2.8 76 76 N 3 6 30.32 1027 10 16 N/A
2:52 am 02:52 Clear 32 undefined 29 -1.7 88 88 N N/A 30.32 1027 9 14 N/A
3:52 am 03:52 Mostly Clear 33 0.6 29 -1.7 85 85 N N/A 30.32 1027 10 16 N/A
4:52 am 04:52 Mostly Cloudy 35 1.7 29 -1.7 78 78 E 3 6 30.31 1026 10 16 N/A
5:52 am 05:52 Mostly Cloudy 33 0.6 29 -1.7 85 85 NNE 3 6 30.30 1026 8 13 N/A
6:44 am 06:44 Partly Cloudy with Mist and Fog 31 -0.6 29 -1.7 92 92 N N/A 30.35 1028 2 2 N/A
6:52 am 06:52 Partly Cloudy with Patchy Fog 31 -0.6 28 -2.2 89 89 NNE 3 6 30.31 1026 4 6 N/A
7:52 am 07:52 Mostly Cloudy with Patchy Fog 34 1.1 29 -1.7 82 82 N N/A 30.31 1026 7 11 N/A
8:52 am 08:52 Partly Cloudy with Mist and Fog 33 0.6 29 -1.7 85 85 N N/A 30.32 1027 6 10 N/A
9:52 am 09:52 Sunny 38 3.3 33 0.6 83 83 N N/A 30.33 1027 7 11 N/A
10:52 am 10:52 Mostly Sunny 44 6.7 30 -1.1 58 58 N N/A 30.34 1027 10 16 N/A
11:52 am 11:52 Mostly Sunny 48 8.9 26 -3.3 42 42 N N/A 30.34 1027 10 16 N/A
12:52 pm 12:52 Partly Cloudy 46 7.8 26 -3.3 46 46 N N/A 30.33 1027 10 16 N/A
1:52 pm 13:52 Partly Cloudy 46 7.8 26 -3.3 46 46 WNW 10 17 30.32 1027 10 16 N/A
2:52 pm 14:52 Mostly Sunny 50 10 25 -3.9 38 38 VRB 3 6 30.29 1026 10 16 N/A
3:52 pm 15:52 Mostly Sunny 49 9.4 24 -4.4 38 38 VRB 3 6 30.29 1026 10 16 N/A
4:52 pm 16:52 Mostly Sunny 49 9.4 24 -4.4 38 38 NW 9 15 30.27 1025 10 16 N/A
5:52 pm 17:52 Mostly Sunny 48 8.9 24 -4.4 39 39 NNW 6 9 30.28 1025 10 16 N/A
6:52 pm 18:52 Clear 45 7.2 24 -4.4 44 44 NNW 5 7 30.29 1026 10 16 N/A
7:52 pm 19:52 Clear 40 4.4 26 -3.3 58 58 NW 3 6 30.30 1026 10 16 N/A
8:52 pm 20:52 Clear 40 4.4 26 -3.3 58 58 NNW 3 6 30.30 1026 10 16 N/A
9:52 pm 21:52 Clear 39 3.9 26 -3.3 60 60 N 8 13 30.31 1026 10 16 N/A
10:52 pm 22:52 Clear 38 3.3 26 -3.3 62 62 NNE 6 9 30.32 1027 10 16 N/A
11:52 pm 23:52 Clear 38 3.3 26 -3.3 62 62 NNE 3 6 30.32 1027 10 16 N/A

Powered by AerisWeather